User: anonymous   Login
Location: Stendal
(52.5994°N, 11.8400°E)
Time: 06:32:18
(UTC+02:00)
Language:

M-CUBED/EXP-1 PRIME - Orbit

View from above orbital plane
View from above orbital plane
View from above satellite
View from above satellite

Ground track
Ground track

The orbit data is extracted from the following two-line orbital elements,

1 37855U 11061F   21298.20021213  .00004594  00000-0  22242-3 0  9997
2 37855 101.7236 289.0302 0164737  44.5932 316.8400 15.08417376545737
Epoch (UTC): 25 October 2021 04:48:18
Eccentricity: 0.0164737
inclination: 101.7236°
perigee height: 427 km
apogee height: 655 km
right ascension of ascending node: 289.0302°
argument of perigee: 44.5932°
revolutions per day: 15.08417376
mean anomaly at epoch: 316.8400°
orbit number at epoch: 54573

The dashed part of the orbit path shows where the satellite is in the earth's shadow,  

DLR